330  
ASUS41 KCTP 251310  
RWRCTP  
 
REGIONAL WEATHER ROUNDUP  
NATIONAL WEATHER SERVICE STATE COLLEGE PA  
900 AM EDT MON OCT 25 2021  
 
NOTE: "FAIR" INDICATES FEW OR NO CLOUDS BELOW 12,000 FEET WITH NO  
SIGNIFICANT WEATHER AND/OR S TO VISIBILITY
.  
 
* = STATION THAT DOES NOT REPORT PRECIPITATION /E.G. RAIN...SNOW...ETC/  
THUNDER OR FOG.
 
 
PAZ002>004-007>009-013>016-020>023-029>032-251400-  
WESTERN PENNSYLVANIA  
 
CITY SKY/WX TMP DP RH WIND PRES REMARKS
 
ERIE CLOUDY 56 52 86 CALM 29.77S  
MEADVILLE SUNNY 58 49 72 S9 29.78F  
FRANKLIN SUNNY 57 51 80 S12 29.81F  
NEW CASTLE FAIR 59 50 72 VRB3 29.80F  
BEAVER COUNTY SUNNY 64 48 56 S10 29.81F  
BUTLER SUNNY 58 50 75 S7 29.84F  
PITTSBURGH INT PTSUNNY 62 47 57 S9 29.83F  
PITTSBURGH SUNNY 61 47 59 S8 29.84R  
INDIANA* SUNNY 63 48 59 SW5 29.90R  
LATROBE SUNNY 61 46 59 SW9 29.86R  
WASHINGTON CO* SUNNY 60 48 64 S7 29.88S  

 
 
PAZ004>006-010>012-017>019-024>028-033>037-041-042-045-046-049>053-251400-  
CENTRAL PENNSYLVANIA  
 
CITY SKY/WX TMP DP RH WIND PRES REMARKS
 
BRADFORD SUNNY 59 47 64 CALM 29.85R  
ST MARYS MOSUNNY 59 48 67 SW5 29.89  
DUBOIS MOSUNNY 61 47 59 SW9 29.84F  
CLEARFIELD PTSUNNY 49 49 100 CALM 29.88S FOG  
JOHNSTOWN SUNNY 61 41 47 S9 29.89S  
SOMERSET FAIR 59 41 51 SW8 29.91S  
ALTOONA SUNNY 54 51 90 NW3 29.91R  
STATE COLLEGE FOG 46 46 100 CALM 29.91R VSB 1/8  
REEDSVILLE FOG 48 48 100 CALM 29.92S VSB<1/4  
WELLSBORO NOT AVBL  
WILLIAMSPORT PTSUNNY 57 52 83 E7 29.90S  
SELINSGROVE FOG 49 48 97 CALM 29.94S VSB<1/4  
FT INDIANTOWN PTSUNNY 53 51 93 CALM 29.96R FOG  
CAPITAL CITY PTSUNNY 56 52 86 CALM 29.94F FOG  
HARRISBURG PTSUNNY 56 51 84 CALM 29.94S  
YORK NOT AVBL  

 
 
PAZ038>040-043-044-047-048-054-055-060>062-067>071-251400-  
EASTERN PENNSYLVANIA  
 
CITY SKY/WX TMP DP RH WIND PRES REMARKS
 
TOWANDA SUNNY 57 57 100 CALM 29.92S  
SCRANTON MOSUNNY 53 51 93 CALM 29.94S FOG  
MOUNT POCONO PTSUNNY 54 54 100 CALM 29.96F  
HAZLETON PTSUNNY 55 54 94 CALM 29.98F FOG  
LEHIGHTON CLOUDY 54 52 94 CALM 29.98S FOG  
ALLENTOWN CLOUDY 58 56 93 N3 29.97R  
QN CITY/ALNTWN CLOUDY 61 59 94 SW5 29.97S  
QUAKERTOWN* CLOUDY 61 61 100 S5 29.97F  
PERKASIE* CLOUDY 61 61 100 S3 29.98S  
DOYLESTOWN PTSUNNY 63 59 87 S6 29.97S  
READING PTSUNNY 54 53 97 N5 29.95S FOG  
LANCASTER PTSUNNY 59 56 89 CALM 29.96S  
COATESVILLE PTSUNNY 61 61 100 CALM 29.98F FOG  
WEST CHESTER CLOUDY 63 61 94 CALM 29.98S  
POTTSTOWN CLOUDY 61 59 93 S5 29.98S FOG  
BLUE BELL NOT AVBL  
NORTH PHILA PTSUNNY 64 62 93 S5 29.99S  
PHILADELPHIA CLOUDY 65 61 87 S8 29.97F  

 
 
 
CLICK HERE TO GO TO PREVIOUS BULLETINS.

The Nexlab PA Page Main Text Page